User: anonymous   Login
Location: Unspecified
(0.0000°N, 0.0000°E)
Time: 03:15:45
(UTC+00:00)
Language:

ETS 8 - Orbit

View from above orbital plane
View from above orbital plane
View from above satellite
View from above satellite

Ground track
Ground track

The orbit data is extracted from the following two-line orbital elements,

1 29656U 06059A   16237.83870656 -.00000266  00000-0  00000+0 0  9994
2 29656   5.0208  60.8940 0004382  79.5963 280.6590  1.00272692 35511
Epoch (UTC): 24 August 2016 20:07:44
Eccentricity: 0.0004382
inclination: 5.0208°
perigee height: 35767 km
apogee height: 35804 km
right ascension of ascending node: 60.8940°
argument of perigee: 79.5963°
revolutions per day: 1.00272692
mean anomaly at epoch: 280.6590°
orbit number at epoch: 3551

The dashed part of the orbit path shows where the satellite is in the earth's shadow,  

DLR